sat.trackr.live / text

‹ back to catalog

STARLINK-33811

NORAD 63504 · 2025-071M

PAYLOAD ACTIVE UNKNOWN

§ Identity

Operator
Country
US
Launch date
2025-04-07
Launch site
AFWTR
Launch vehicle
Mass (kg)
RCS (m²)

Purposes: comms

External: N2YO · Heavens-Above · Gunter

§ Orbital elements

Epoch: 2026-09-20T20:26:00.727584Z

Period
93.85 min
Inclination
53.1580°
Eccentricity
0.0001280
Mean motion
15.34398169 rev/d
Perigee alt
461.8 km
Apogee alt
463.6 km
Semi-major
6,840.8 km
B*
2.5676e-4
RAAN
311.7453°
Arg perigee
90.3815°
Mean anomaly
269.7335°
Rev number
8,261

§ Raw data

STARLINK-338111 63504U 25071M   26263.85139731  .00008308  00000+0  25676-3 0  99962 63504  53.1580 311.7453 0001280  90.3815 269.7335 15.34398169 82614

JSON: /api/v1/satellites/63504 · /tle

For live sub-satellite position, see the globe view (requires WebGL).

§ Visibility from observer

Set your observer location to see the next 7 days of passes ≥ 10°. The values pass through the URL so the page stays shareable.

No JS? Fill the form by hand. The geolocation button needs JavaScript.